Time,TemperatureF,DewpointF,PressureIn,WindDirection,WindDirectionDegrees,WindSpeedMPH,WindSpeedGustMPH,Humidity,HourlyPrecipIn,Conditions,Clouds,dailyrainin,SoftwareType,DateUTC
2013-09-26 00:01:00,61.0,61.0,29.93,SSW,206,5.8,5.8,100,0.01,RA,,0.00,WeatherDisplay:10.37,2013-09-26 04:01:00,
2013-09-26 00:02:00,61.0,61.0,29.94,SSW,193,6.9,6.9,100,0.01,RA,,0.00,WeatherDisplay:10.37,2013-09-26 04:02:00,
2013-09-26 00:07:00,60.9,60.9,29.93,SSW,211,6.9,6.9,100,0.01,RA,,0.00,WeatherDisplay:10.37,2013-09-26 04:07:00,
2013-09-26 00:12:00,60.9,60.9,29.93,SSW,201,5.8,0.0,100,0.02,RA,,0.01,WeatherDisplay:10.37,2013-09-26 04:12:00,
2013-09-26 00:17:00,60.9,60.9,29.93,SSW,206,4.6,4.6,100,0.02,RA,,0.01,WeatherDisplay:10.37,2013-09-26 04:17:00,
2013-09-26 00:22:00,60.9,60.9,29.93,SSW,206,0.0,0.0,100,0.02,CLR,,0.01,WeatherDisplay:10.37,2013-09-26 04:22:00,
2013-09-26 00:27:00,60.8,60.8,29.93,SSW,206,0.0,0.0,100,0.02,,,0.01,WeatherDisplay:10.37,2013-09-26 04:27:00,
2013-09-26 00:32:00,60.9,60.9,29.93,SSW,206,0.0,0.0,100,0.02,,,0.01,WeatherDisplay:10.37,2013-09-26 04:32:00,
2013-09-26 00:37:00,60.9,60.9,29.93,SSW,212,4.0,4.2,100,0.02,,,0.01,WeatherDisplay:10.37,2013-09-26 04:37:00,
2013-09-26 00:42:00,60.9,60.9,29.93,SSW,213,0.0,0.0,100,0.02,,,0.01,WeatherDisplay:10.37,2013-09-26 04:42:00,
2013-09-26 00:47:00,60.8,60.8,29.93,SW,231,3.5,0.0,100,0.02,,,0.01,WeatherDisplay:10.37,2013-09-26 04:47:00,
2013-09-26 00:52:00,60.9,60.9,29.93,SW,231,1.2,0.0,100,0.01,,,0.01,WeatherDisplay:10.37,2013-09-26 04:52:00,
2013-09-26 00:57:00,60.9,60.9,29.93,SSW,198,5.8,5.8,100,0.01,,,0.01,WeatherDisplay:10.37,2013-09-26 04:57:00,
2013-09-26 01:02:00,60.9,60.9,29.93,SSW,193,2.2,2.2,100,0.01,,,0.01,WeatherDisplay:10.37,2013-09-26 05:02:00,
2013-09-26 01:07:00,60.9,60.9,29.93,SSW,193,0.0,0.0,100,0.01,,,0.01,WeatherDisplay:10.37,2013-09-26 05:07:00,
2013-09-26 01:12:00,60.9,60.9,29.93,SSW,193,0.0,0.0,100,0.00,,,0.01,WeatherDisplay:10.37,2013-09-26 05:12:00,
2013-09-26 01:17:00,60.9,60.9,29.93,SSW,210,0.0,0.0,100,0.00,,,0.01,WeatherDisplay:10.37,2013-09-26 05:17:00,
2013-09-26 01:23:00,60.8,60.8,29.93,SSW,210,0.0,0.0,100,0.00,,,0.01,WeatherDisplay:10.37,2013-09-26 05:23:00,
2013-09-26 01:28:00,60.8,60.8,29.93,SSW,208,3.5,3.5,100,0.00,,,0.01,WeatherDisplay:10.37,2013-09-26 05:28:00,
2013-09-26 01:33:00,60.8,60.8,29.93,SSW,204,1.2,1.2,100,0.00,,,0.01,WeatherDisplay:10.37,2013-09-26 05:33:00,
2013-09-26 01:38:00,60.8,60.8,29.93,SSW,210,0.0,0.0,100,0.00,,,0.01,WeatherDisplay:10.37,2013-09-26 05:38:00,
2013-09-26 01:43:00,60.8,60.8,29.93,SSW,210,0.0,0.0,100,0.00,,,0.01,WeatherDisplay:10.37,2013-09-26 05:43:00,
2013-09-26 01:48:00,60.8,60.8,29.93,SSW,210,0.0,0.0,100,0.00,,,0.01,WeatherDisplay:10.37,2013-09-26 05:48:00,
2013-09-26 01:53:00,60.8,60.8,29.93,SSW,210,1.2,0.0,100,0.01,RA,,0.02,WeatherDisplay:10.37,2013-09-26 05:53:00,
2013-09-26 01:58:00,60.7,60.7,29.93,SW,214,0.0,0.0,100,0.01,RA,,0.02,WeatherDisplay:10.37,2013-09-26 05:58:00,
2013-09-26 02:03:00,60.7,60.7,29.93,SW,214,1.2,0.0,100,0.01,,,0.02,WeatherDisplay:10.37,2013-09-26 06:03:00,
2013-09-26 02:08:00,60.7,60.7,29.94,SW,215,0.0,0.0,100,0.01,CLR,,0.02,WeatherDisplay:10.37,2013-09-26 06:08:00,
2013-09-26 02:13:00,60.7,60.7,29.94,SW,215,0.0,0.0,100,0.01,,,0.02,WeatherDisplay:10.37,2013-09-26 06:13:00,
2013-09-26 02:18:00,60.7,60.7,29.93,SSW,210,0.0,0.4,100,0.01,,,0.02,WeatherDisplay:10.37,2013-09-26 06:18:00,
2013-09-26 02:23:00,60.6,60.6,29.94,SSW,209,4.6,4.6,100,0.01,,,0.03,WeatherDisplay:10.37,2013-09-26 06:23:00,
2013-09-26 02:28:00,60.6,60.6,29.94,SSW,204,1.2,1.2,100,0.02,RA,,0.03,WeatherDisplay:10.37,2013-09-26 06:28:00,
2013-09-26 02:33:00,60.6,60.6,29.94,SSW,208,0.0,0.0,100,0.02,RA,,0.03,WeatherDisplay:10.37,2013-09-26 06:33:00,
2013-09-26 02:38:00,60.6,60.6,29.94,SSW,208,0.0,0.0,100,0.03,RA,,0.04,WeatherDisplay:10.37,2013-09-26 06:38:00,
2013-09-26 02:43:00,60.6,60.6,29.94,SSW,208,0.0,0.0,100,0.03,RA,,0.04,WeatherDisplay:10.37,2013-09-26 06:43:00,
2013-09-26 02:48:00,60.6,60.6,29.94,SSW,208,0.0,0.0,100,0.03,CLR,,0.04,WeatherDisplay:10.37,2013-09-26 06:48:00,
2013-09-26 02:53:00,60.6,60.6,29.94,SSW,210,0.0,0.0,100,0.02,,,0.04,WeatherDisplay:10.37,2013-09-26 06:53:00,
2013-09-26 02:58:00,60.5,60.5,29.94,SSW,210,0.0,0.0,100,0.02,,,0.04,WeatherDisplay:10.37,2013-09-26 06:58:00,
2013-09-26 03:03:00,60.5,60.5,29.93,SSW,210,0.0,0.0,100,0.02,,,0.04,WeatherDisplay:10.37,2013-09-26 07:03:00,
2013-09-26 03:08:00,60.5,60.5,29.94,SSW,210,0.0,0.0,100,0.02,,,0.04,WeatherDisplay:10.37,2013-09-26 07:08:00,
2013-09-26 03:13:00,60.5,60.5,29.94,SSW,210,0.0,0.0,100,0.02,,,0.04,WeatherDisplay:10.37,2013-09-26 07:13:00,
2013-09-26 03:18:00,60.5,60.5,29.94,SSW,210,2.3,2.3,100,0.02,,,0.04,WeatherDisplay:10.37,2013-09-26 07:18:00,
2013-09-26 03:23:00,60.5,60.5,29.94,SSW,210,0.0,0.0,100,0.02,,,0.04,WeatherDisplay:10.37,2013-09-26 07:23:00,
2013-09-26 03:28:00,60.5,60.5,29.93,SSW,210,0.0,0.0,100,0.01,,,0.04,WeatherDisplay:10.37,2013-09-26 07:28:00,
2013-09-26 03:33:00,60.5,60.5,29.94,SSW,210,0.0,0.0,100,0.01,,,0.04,WeatherDisplay:10.37,2013-09-26 07:33:00,
2013-09-26 03:38:00,60.5,60.5,29.93,SSW,210,0.0,0.0,100,0.00,,,0.04,WeatherDisplay:10.37,2013-09-26 07:38:00,
2013-09-26 03:43:00,60.5,60.5,29.94,SSW,210,5.8,5.8,100,0.00,,,0.04,WeatherDisplay:10.37,2013-09-26 07:43:00,
2013-09-26 03:48:00,60.4,60.4,29.94,SSW,210,0.0,0.0,100,0.00,,,0.04,WeatherDisplay:10.37,2013-09-26 07:48:00,
2013-09-26 03:53:00,60.4,60.4,29.94,SSW,210,0.0,0.0,100,0.00,,,0.04,WeatherDisplay:10.37,2013-09-26 07:53:00,
2013-09-26 03:58:00,60.4,60.4,29.94,SSW,210,0.0,0.0,100,0.00,,,0.04,WeatherDisplay:10.37,2013-09-26 07:58:00,
2013-09-26 04:03:00,60.4,60.4,29.94,SSW,210,0.0,0.0,100,0.00,,,0.04,WeatherDisplay:10.37,2013-09-26 08:03:00,
2013-09-26 04:08:00,60.4,60.4,29.94,SSW,210,0.0,0.0,100,0.00,,,0.04,WeatherDisplay:10.37,2013-09-26 08:08:00,
2013-09-26 04:13:00,60.4,60.4,29.94,SSW,210,1.2,1.2,100,0.00,,,0.04,WeatherDisplay:10.37,2013-09-26 08:13:00,
2013-09-26 04:18:00,60.4,60.4,29.93,SSW,210,0.0,0.0,100,0.00,,,0.04,WeatherDisplay:10.37,2013-09-26 08:18:00,
2013-09-26 04:23:00,60.4,60.4,29.93,SSW,210,0.0,0.0,100,0.00,,,0.04,WeatherDisplay:10.37,2013-09-26 08:23:00,
2013-09-26 04:28:00,60.4,60.4,29.94,SSW,210,1.3,1.3,100,0.00,,,0.04,WeatherDisplay:10.37,2013-09-26 08:28:00,
2013-09-26 04:33:00,60.4,60.4,29.94,SSW,212,0.0,0.0,100,0.00,,,0.04,WeatherDisplay:10.37,2013-09-26 08:33:00,
2013-09-26 04:38:00,60.4,60.4,29.94,SSW,212,0.0,0.0,100,0.00,,,0.04,WeatherDisplay:10.37,2013-09-26 08:38:00,
2013-09-26 04:43:00,60.4,60.4,29.94,SSW,212,0.0,0.0,100,0.00,,,0.04,WeatherDisplay:10.37,2013-09-26 08:43:00,
2013-09-26 04:48:00,60.4,60.4,29.94,SSW,212,0.0,0.0,100,0.00,,,0.04,WeatherDisplay:10.37,2013-09-26 08:48:00,
2013-09-26 04:53:00,60.4,60.4,29.94,SSW,212,0.0,0.0,100,0.00,,,0.04,WeatherDisplay:10.37,2013-09-26 08:53:00,
2013-09-26 04:58:00,60.4,60.4,29.94,SSW,212,0.0,0.0,100,0.00,,,0.04,WeatherDisplay:10.37,2013-09-26 08:58:00,
2013-09-26 05:03:00,60.4,60.4,29.94,SSW,212,0.0,0.0,100,0.00,,,0.04,WeatherDisplay:10.37,2013-09-26 09:03:00,
2013-09-26 05:08:00,60.5,60.5,29.94,SSW,212,0.0,0.0,100,0.00,,,0.04,WeatherDisplay:10.37,2013-09-26 09:08:00,
2013-09-26 05:13:00,60.5,60.5,29.94,SSW,212,0.0,0.0,100,0.00,,,0.04,WeatherDisplay:10.37,2013-09-26 09:13:00,
2013-09-26 05:18:00,60.5,60.5,29.94,SSW,212,0.0,0.0,100,0.00,,,0.04,WeatherDisplay:10.37,2013-09-26 09:18:00,
2013-09-26 05:23:00,60.5,60.5,29.94,SSW,212,0.0,0.0,100,0.00,,,0.04,WeatherDisplay:10.37,2013-09-26 09:23:00,
2013-09-26 05:25:00,61.6,61.6,30.02,SSW,207,0.0,0.0,100,0.00,RA,RA,0.04,WeatherDisplay:10.37,2013-09-26 09:25:00,
2013-09-26 05:28:00,60.5,60.5,29.94,SSW,212,0.0,0.0,100,0.00,,,0.04,WeatherDisplay:10.37,2013-09-26 09:28:00,
2013-09-26 05:30:00,61.6,61.6,30.03,SSW,202,0.0,0.0,100,0.00,RA,RA,0.04,WeatherDisplay:10.37,2013-09-26 09:30:00,
2013-09-26 05:33:00,60.5,60.5,29.94,SSW,212,0.0,0.0,100,0.00,,,0.04,WeatherDisplay:10.37,2013-09-26 09:33:00,
2013-09-26 05:38:00,60.5,60.5,29.94,SSW,212,0.0,0.0,100,0.00,,,0.04,WeatherDisplay:10.37,2013-09-26 09:38:00,
2013-09-26 05:43:00,60.4,60.4,29.94,SSW,212,0.0,0.0,100,0.00,,,0.04,WeatherDisplay:10.37,2013-09-26 09:43:00,
2013-09-26 05:48:00,60.4,60.4,29.94,SSW,212,0.0,0.0,100,0.00,,,0.04,WeatherDisplay:10.37,2013-09-26 09:48:00,
2013-09-26 05:53:00,60.5,60.5,29.94,SSW,212,0.0,0.0,100,0.00,,,0.04,WeatherDisplay:10.37,2013-09-26 09:53:00,
2013-09-26 05:58:00,60.5,60.5,29.94,SSW,212,0.0,0.0,100,0.00,,,0.04,WeatherDisplay:10.37,2013-09-26 09:58:00,
2013-09-26 06:03:00,60.5,60.5,29.94,SSW,212,0.0,0.0,100,0.00,,,0.04,WeatherDisplay:10.37,2013-09-26 10:03:00,
2013-09-26 06:08:00,60.5,60.5,29.94,SSW,212,0.0,0.0,100,0.00,,,0.04,WeatherDisplay:10.37,2013-09-26 10:08:00,
2013-09-26 06:13:00,60.4,60.4,29.95,SSW,212,0.0,0.0,100,0.00,,,0.04,WeatherDisplay:10.37,2013-09-26 10:13:00,
2013-09-26 06:18:00,60.4,60.4,29.95,SSW,212,0.0,0.0,100,0.00,,,0.04,WeatherDisplay:10.37,2013-09-26 10:18:00,
2013-09-26 06:23:00,60.3,60.3,29.95,SSW,212,0.0,0.0,100,0.00,,,0.04,WeatherDisplay:10.37,2013-09-26 10:23:00,
2013-09-26 06:28:00,60.3,60.3,29.95,SSW,212,0.0,0.0,100,0.00,,,0.04,WeatherDisplay:10.37,2013-09-26 10:28:00,
2013-09-26 06:33:00,60.3,60.3,29.95,SSW,212,0.0,0.0,100,0.00,,,0.04,WeatherDisplay:10.37,2013-09-26 10:33:00,
2013-09-26 06:38:00,60.3,60.3,29.95,SSW,212,0.0,0.0,100,0.00,,,0.04,WeatherDisplay:10.37,2013-09-26 10:38:00,
2013-09-26 06:43:00,60.3,60.3,29.95,SSW,212,0.0,0.0,100,0.00,,,0.04,WeatherDisplay:10.37,2013-09-26 10:43:00,
2013-09-26 06:48:00,60.3,60.3,29.96,SSW,212,0.0,0.0,100,0.00,,,0.04,WeatherDisplay:10.37,2013-09-26 10:48:00,
2013-09-26 06:53:00,60.3,60.3,29.96,SSW,212,0.0,0.0,100,0.00,,,0.04,WeatherDisplay:10.37,2013-09-26 10:53:00,
2013-09-26 06:58:00,60.3,60.3,29.96,SSW,212,0.0,0.0,100,0.00,,,0.04,WeatherDisplay:10.37,2013-09-26 10:58:00,
2013-09-26 07:03:00,60.2,60.2,29.97,SSW,212,0.0,0.0,100,0.00,,,0.04,WeatherDisplay:10.37,2013-09-26 11:03:00,
2013-09-26 07:08:00,60.2,60.2,29.97,SSW,212,0.0,0.0,100,0.00,,,0.04,WeatherDisplay:10.37,2013-09-26 11:08:00,
2013-09-26 07:13:00,60.2,60.2,29.97,SSW,212,0.0,0.0,100,0.00,,,0.04,WeatherDisplay:10.37,2013-09-26 11:13:00,
2013-09-26 07:18:00,60.2,60.2,29.97,SSW,212,0.0,0.0,100,0.00,,,0.04,WeatherDisplay:10.37,2013-09-26 11:18:00,
2013-09-26 07:23:00,60.2,60.2,29.97,SSW,212,0.0,0.0,100,0.00,,,0.04,WeatherDisplay:10.37,2013-09-26 11:23:00,
2013-09-26 07:28:00,60.2,60.2,29.97,SSW,212,0.0,0.0,100,0.00,,,0.04,WeatherDisplay:10.37,2013-09-26 11:28:00,
2013-09-26 07:33:00,60.2,60.2,29.98,SSW,212,0.0,0.0,100,0.00,,,0.04,WeatherDisplay:10.37,2013-09-26 11:33:00,
2013-09-26 07:38:00,60.3,60.3,29.98,SSW,212,0.0,0.0,100,0.00,,,0.04,WeatherDisplay:10.37,2013-09-26 11:38:00,
2013-09-26 07:43:00,60.3,60.3,29.98,SSW,212,0.0,0.0,100,0.00,,,0.04,WeatherDisplay:10.37,2013-09-26 11:43:00,
2013-09-26 07:48:00,60.3,60.3,29.98,SSW,212,0.0,0.0,100,0.00,,,0.04,WeatherDisplay:10.37,2013-09-26 11:48:00,
2013-09-26 07:53:00,60.3,60.3,29.99,SSW,212,0.0,0.0,100,0.00,,,0.04,WeatherDisplay:10.37,2013-09-26 11:53:00,
2013-09-26 07:58:00,60.3,60.3,29.99,SSW,212,0.0,0.0,100,0.00,,,0.04,WeatherDisplay:10.37,2013-09-26 11:58:00,
2013-09-26 08:03:00,60.3,60.3,29.99,SSW,212,0.0,0.0,100,0.00,,,0.04,WeatherDisplay:10.37,2013-09-26 12:03:00,
2013-09-26 08:08:00,60.2,60.2,29.99,SSW,212,0.0,0.0,100,0.00,,,0.04,WeatherDisplay:10.37,2013-09-26 12:08:00,
2013-09-26 08:13:00,60.2,60.2,29.99,SSW,212,0.0,0.0,100,0.00,,,0.04,WeatherDisplay:10.37,2013-09-26 12:13:00,
2013-09-26 08:18:00,60.3,60.3,29.99,SSW,212,0.0,0.0,100,0.00,,,0.04,WeatherDisplay:10.37,2013-09-26 12:18:00,
2013-09-26 08:23:00,60.3,60.3,30.00,SSW,212,0.0,0.0,100,0.00,,,0.04,WeatherDisplay:10.37,2013-09-26 12:23:00,
2013-09-26 08:29:00,60.3,60.3,30.00,SSW,212,0.0,0.0,100,0.00,,,0.04,WeatherDisplay:10.37,2013-09-26 12:29:00,
2013-09-26 08:34:00,60.4,60.4,30.00,SSW,212,0.0,0.0,100,0.00,,,0.04,WeatherDisplay:10.37,2013-09-26 12:34:00,
2013-09-26 08:39:00,60.4,60.4,30.01,SSW,212,0.0,0.0,100,0.00,,,0.04,WeatherDisplay:10.37,2013-09-26 12:39:00,
2013-09-26 08:44:00,60.4,60.4,30.01,SSW,212,0.0,0.0,100,0.00,,,0.04,WeatherDisplay:10.37,2013-09-26 12:44:00,
2013-09-26 08:49:00,60.5,60.5,30.01,SSW,212,0.0,0.0,100,0.00,,,0.04,WeatherDisplay:10.37,2013-09-26 12:49:00,
2013-09-26 08:54:00,60.4,60.4,30.01,SSW,212,0.0,0.0,100,0.00,,,0.04,WeatherDisplay:10.37,2013-09-26 12:54:00,
2013-09-26 08:59:00,60.4,60.4,30.01,SSW,212,0.0,0.0,100,0.00,,,0.04,WeatherDisplay:10.37,2013-09-26 12:59:00,
2013-09-26 09:04:00,60.4,60.4,30.01,SSW,212,0.0,0.0,100,0.00,,,0.04,WeatherDisplay:10.37,2013-09-26 13:04:00,
2013-09-26 09:09:00,60.5,60.5,30.01,SSW,212,0.0,0.0,100,0.00,,,0.04,WeatherDisplay:10.37,2013-09-26 13:09:00,
2013-09-26 09:14:00,60.6,60.6,30.02,SSW,212,0.0,0.0,100,0.00,,,0.04,WeatherDisplay:10.37,2013-09-26 13:14:00,
2013-09-26 09:19:00,60.7,60.7,30.02,SSW,212,0.0,0.0,100,0.00,,,0.04,WeatherDisplay:10.37,2013-09-26 13:19:00,
2013-09-26 09:24:00,60.7,60.7,30.02,SSW,212,0.0,0.0,100,0.00,,,0.04,WeatherDisplay:10.37,2013-09-26 13:24:00,
2013-09-26 09:29:00,60.7,60.7,30.02,SSW,212,0.0,0.0,100,0.00,,,0.04,WeatherDisplay:10.37,2013-09-26 13:29:00,
2013-09-26 09:34:00,60.7,60.7,30.02,SSW,212,0.0,0.0,100,0.00,,,0.04,WeatherDisplay:10.37,2013-09-26 13:34:00,
2013-09-26 09:39:00,60.7,60.7,30.02,SSW,212,0.0,0.0,100,0.00,,,0.04,WeatherDisplay:10.37,2013-09-26 13:39:00,
2013-09-26 09:44:00,60.8,60.8,30.02,SSW,212,0.0,0.0,100,0.00,,,0.04,WeatherDisplay:10.37,2013-09-26 13:44:00,
2013-09-26 09:49:00,60.8,60.8,30.02,SSW,212,0.0,0.0,100,0.00,,,0.04,WeatherDisplay:10.37,2013-09-26 13:49:00,
2013-09-26 09:54:00,61.0,61.0,30.02,SSW,212,0.0,0.0,100,0.00,,,0.04,WeatherDisplay:10.37,2013-09-26 13:54:00,
2013-09-26 09:59:00,61.1,61.1,30.02,SSW,212,0.0,0.0,100,0.00,,,0.04,WeatherDisplay:10.37,2013-09-26 13:59:00,
2013-09-26 10:04:00,61.3,61.3,30.03,SSW,212,0.0,0.0,100,0.00,,,0.04,WeatherDisplay:10.37,2013-09-26 14:04:00,
2013-09-26 10:09:00,61.6,61.6,30.02,SSW,212,0.0,0.0,100,0.00,,,0.04,WeatherDisplay:10.37,2013-09-26 14:09:00,
2013-09-26 10:14:00,61.6,61.6,30.03,SSW,212,0.0,0.0,100,0.00,,,0.04,WeatherDisplay:10.37,2013-09-26 14:14:00,
2013-09-26 10:19:00,61.6,61.6,30.03,SSW,212,0.0,0.0,100,0.00,,,0.04,WeatherDisplay:10.37,2013-09-26 14:19:00,
2013-09-26 10:24:00,61.6,61.6,30.02,SSW,212,0.0,0.0,100,0.00,,,0.04,WeatherDisplay:10.37,2013-09-26 14:24:00,
2013-09-26 10:33:00,61.6,61.6,30.03,SSW,212,0.0,0.0,100,0.00,CLR,,0.04,WeatherDisplay:10.37,2013-09-26 14:33:00,
2013-09-26 10:41:00,61.6,61.6,30.03,SSW,212,0.0,0.0,100,0.00,,,0.04,WeatherDisplay:10.37,2013-09-26 14:41:00,
2013-09-26 10:46:00,61.6,61.6,30.03,SSW,212,0.0,0.0,100,0.00,,,0.04,WeatherDisplay:10.37,2013-09-26 14:46:00,
2013-09-26 10:51:00,61.6,61.6,30.03,SSW,212,0.0,0.0,100,0.00,,,0.04,WeatherDisplay:10.37,2013-09-26 14:51:00,
2013-09-26 10:56:00,61.6,61.6,30.03,SSW,212,0.0,0.0,100,0.00,,,0.04,WeatherDisplay:10.37,2013-09-26 14:56:00,
2013-09-26 11:01:00,61.6,61.6,30.03,SSW,212,0.0,0.0,100,0.00,,,0.04,WeatherDisplay:10.37,2013-09-26 15:01:00,
2013-09-26 11:06:00,61.6,61.6,30.03,SSW,212,0.0,0.0,100,0.00,,,0.04,WeatherDisplay:10.37,2013-09-26 15:06:00,
2013-09-26 11:11:00,61.6,61.6,30.03,SSW,212,0.0,0.0,100,0.00,,,0.04,WeatherDisplay:10.37,2013-09-26 15:11:00,
2013-09-26 11:16:00,61.7,61.7,30.03,SSW,212,0.0,0.0,100,0.00,,,0.04,WeatherDisplay:10.37,2013-09-26 15:16:00,
2013-09-26 11:21:00,62.1,62.1,30.03,SSW,212,0.0,0.0,100,0.00,,,0.04,WeatherDisplay:10.37,2013-09-26 15:21:00,
2013-09-26 11:26:00,62.2,62.2,30.03,SSW,212,1.2,1.2,100,0.00,,,0.04,WeatherDisplay:10.37,2013-09-26 15:26:00,
2013-09-26 11:31:00,62.1,62.1,30.03,SSW,212,0.0,0.0,100,0.00,,,0.04,WeatherDisplay:10.37,2013-09-26 15:31:00,
2013-09-26 11:36:00,61.8,61.8,30.03,SSW,212,1.2,1.2,100,0.00,,,0.04,WeatherDisplay:10.37,2013-09-26 15:36:00,
2013-09-26 11:41:00,61.8,61.8,30.03,SSW,212,0.0,0.0,100,0.00,,,0.04,WeatherDisplay:10.37,2013-09-26 15:41:00,
2013-09-26 11:46:00,62.1,62.1,30.03,SSW,212,0.0,0.0,100,0.00,,,0.04,WeatherDisplay:10.37,2013-09-26 15:46:00,
2013-09-26 11:51:00,62.3,62.3,30.03,SSW,212,0.0,0.0,100,0.00,,,0.04,WeatherDisplay:10.37,2013-09-26 15:51:00,
2013-09-26 11:56:00,62.6,62.6,30.03,SW,225,0.0,0.0,100,0.00,,,0.04,WeatherDisplay:10.37,2013-09-26 15:56:00,
2013-09-26 12:01:00,62.9,62.9,30.03,SW,224,0.0,0.0,100,0.00,,,0.04,WeatherDisplay:10.37,2013-09-26 16:01:00,
2013-09-26 12:06:00,63.3,63.3,30.03,SW,224,0.0,0.0,100,0.00,,,0.04,WeatherDisplay:10.37,2013-09-26 16:06:00,
2013-09-26 12:11:00,63.6,63.6,30.03,SW,224,0.0,0.0,100,0.00,,,0.04,WeatherDisplay:10.37,2013-09-26 16:11:00,
2013-09-26 12:16:00,63.9,63.9,30.03,SW,224,0.0,0.0,100,0.00,,,0.04,WeatherDisplay:10.37,2013-09-26 16:16:00,
2013-09-26 12:21:00,64.0,64.0,30.03,SW,224,0.0,0.0,100,0.00,,,0.04,WeatherDisplay:10.37,2013-09-26 16:21:00,
2013-09-26 12:26:00,63.8,63.8,30.03,SW,226,0.0,0.0,100,0.00,,,0.04,WeatherDisplay:10.37,2013-09-26 16:26:00,
2013-09-26 12:31:00,63.6,63.6,30.03,SW,226,0.0,0.0,100,0.00,,,0.04,WeatherDisplay:10.37,2013-09-26 16:31:00,
2013-09-26 12:36:00,63.4,63.4,30.03,SW,226,0.0,0.0,100,0.00,,,0.04,WeatherDisplay:10.37,2013-09-26 16:36:00,
2013-09-26 12:41:00,63.3,63.3,30.03,SW,226,1.2,1.2,100,0.00,,,0.04,WeatherDisplay:10.37,2013-09-26 16:41:00,
2013-09-26 12:46:00,63.3,63.3,30.03,SW,226,0.0,0.0,100,0.00,,,0.04,WeatherDisplay:10.37,2013-09-26 16:46:00,
2013-09-26 12:51:00,63.2,63.2,30.03,WSW,241,1.2,1.2,100,0.00,,,0.04,WeatherDisplay:10.37,2013-09-26 16:51:00,
2013-09-26 12:56:00,63.3,63.3,30.02,North,360,4.6,4.6,100,0.00,,,0.04,WeatherDisplay:10.37,2013-09-26 16:56:00,
2013-09-26 13:01:00,63.4,63.4,30.03,NNW,335,1.2,0.0,100,0.00,,,0.04,WeatherDisplay:10.37,2013-09-26 17:01:00,
2013-09-26 13:06:00,63.7,63.4,30.02,WNW,301,1.2,1.2,99,0.00,,,0.04,WeatherDisplay:10.37,2013-09-26 17:06:00,
2013-09-26 13:11:00,63.9,63.6,30.03,WNW,301,0.0,0.0,99,0.00,,,0.04,WeatherDisplay:10.37,2013-09-26 17:11:00,
2013-09-26 13:16:00,64.1,63.8,30.03,WNW,301,0.0,0.0,99,0.00,,,0.04,WeatherDisplay:10.37,2013-09-26 17:16:00,
2013-09-26 13:20:00,68.3,63.9,30.01,WNW,297,0.0,0.0,86,0.00,RA,RA,0.19,WeatherDisplay:10.37,2013-09-26 17:20:00,
2013-09-26 13:21:00,64.3,64.0,30.02,WNW,301,0.0,0.0,99,0.00,,,0.04,WeatherDisplay:10.37,2013-09-26 17:21:00,
2013-09-26 13:25:00,68.2,63.5,30.02,WNW,293,0.0,3.0,85,0.00,RA,RA,0.19,WeatherDisplay:10.37,2013-09-26 17:25:00,
2013-09-26 13:26:00,64.4,63.8,30.03,WNW,301,0.0,0.0,98,0.00,,,0.04,WeatherDisplay:10.37,2013-09-26 17:26:00,
2013-09-26 13:30:00,68.1,63.8,30.02,WNW,292,0.0,1.0,86,0.00,CLR,CLR,0.19,WeatherDisplay:10.37,2013-09-26 17:30:00,
2013-09-26 13:31:00,64.6,64.0,30.02,WNW,301,0.0,0.0,98,0.00,,,0.04,WeatherDisplay:10.37,2013-09-26 17:31:00,
2013-09-26 13:35:00,68.0,63.7,30.02,WNW,292,0.0,1.0,86,0.00,CLR,CLR,0.19,WeatherDisplay:10.37,2013-09-26 17:35:00,
2013-09-26 13:36:00,64.9,64.0,30.02,NW,306,4.6,4.6,97,0.00,,,0.04,WeatherDisplay:10.37,2013-09-26 17:36:00,
2013-09-26 13:40:00,67.9,63.6,30.02,WNW,292,0.0,0.0,86,0.00,CLR,CLR,0.19,WeatherDisplay:10.37,2013-09-26 17:40:00,
2013-09-26 13:41:00,65.3,64.4,30.02,WNW,287,1.2,1.2,97,0.00,,,0.04,WeatherDisplay:10.37,2013-09-26 17:41:00,
2013-09-26 13:45:00,67.8,63.1,30.02,WNW,292,0.0,1.0,85,0.00,CLR,CLR,0.19,WeatherDisplay:10.37,2013-09-26 17:45:00,
2013-09-26 13:46:00,65.7,64.5,30.02,WNW,300,1.1,0.0,96,0.00,,,0.04,WeatherDisplay:10.37,2013-09-26 17:46:00,
2013-09-26 13:50:00,67.6,62.9,30.02,WNW,303,0.0,5.0,85,0.00,CLR,CLR,0.19,WeatherDisplay:10.37,2013-09-26 17:50:00,
2013-09-26 13:51:00,66.2,64.7,30.02,WSW,251,1.2,0.0,95,0.00,,,0.04,WeatherDisplay:10.37,2013-09-26 17:51:00,
2013-09-26 13:55:00,67.5,63.2,30.03,NW,315,0.0,0.0,86,0.00,CLR,CLR,0.19,WeatherDisplay:10.37,2013-09-26 17:55:00,
2013-09-26 13:56:00,66.4,64.6,30.02,WSW,251,0.0,0.0,94,0.00,CLR,,0.04,WeatherDisplay:10.37,2013-09-26 17:56:00,
2013-09-26 14:00:00,67.3,63.0,30.03,NW,315,0.0,1.0,86,0.00,CLR,CLR,0.19,WeatherDisplay:10.37,2013-09-26 18:00:00,
2013-09-26 14:01:00,66.4,64.3,30.01,WSW,251,0.0,0.0,93,0.00,CLR,,0.04,WeatherDisplay:10.37,2013-09-26 18:01:00,
2013-09-26 14:05:00,67.1,62.8,30.02,NW,315,0.0,1.0,86,0.00,CLR,CLR,0.19,WeatherDisplay:10.37,2013-09-26 18:05:00,
2013-09-26 14:06:00,66.5,64.4,30.01,WSW,251,0.0,0.0,93,0.00,CLR,,0.04,WeatherDisplay:10.37,2013-09-26 18:06:00,
2013-09-26 14:10:00,66.8,62.8,30.03,NW,315,0.0,0.0,87,0.00,CLR,CLR,0.19,WeatherDisplay:10.37,2013-09-26 18:10:00,
2013-09-26 14:11:00,66.4,64.0,30.01,WSW,251,0.0,0.0,92,0.00,CLR,,0.04,WeatherDisplay:10.37,2013-09-26 18:11:00,
2013-09-26 14:15:00,66.6,62.6,30.03,NW,315,0.0,1.0,87,0.00,CLR,CLR,0.19,WeatherDisplay:10.37,2013-09-26 18:15:00,
2013-09-26 14:16:00,66.5,64.1,30.01,WSW,251,0.0,0.0,92,0.00,CLR,,0.04,WeatherDisplay:10.37,2013-09-26 18:16:00,
2013-09-26 14:20:00,66.3,62.0,30.03,NW,315,0.0,1.0,86,0.00,CLR,CLR,0.19,WeatherDisplay:10.37,2013-09-26 18:20:00,
2013-09-26 14:22:00,66.7,64.3,30.01,WSW,254,0.0,0.0,92,0.00,CLR,,0.04,WeatherDisplay:10.37,2013-09-26 18:22:00,
2013-09-26 14:25:00,66.1,62.1,30.03,NW,315,0.0,3.0,87,0.00,CLR,CLR,0.19,WeatherDisplay:10.37,2013-09-26 18:25:00,
2013-09-26 14:27:00,66.9,63.9,30.01,WNW,286,5.8,0.0,90,0.00,CLR,,0.04,WeatherDisplay:10.37,2013-09-26 18:27:00,
2013-09-26 14:30:00,65.9,61.9,30.03,NW,315,0.0,1.0,87,0.00,CLR,CLR,0.19,WeatherDisplay:10.37,2013-09-26 18:30:00,
2013-09-26 14:32:00,67.2,64.5,30.01,WNW,286,0.0,0.0,91,0.00,CLR,,0.04,WeatherDisplay:10.37,2013-09-26 18:32:00,
2013-09-26 14:35:00,65.7,61.7,30.03,NNW,338,0.0,4.0,87,0.00,CLR,CLR,0.19,WeatherDisplay:10.37,2013-09-26 18:35:00,
2013-09-26 14:37:00,67.6,64.9,30.00,WNW,286,0.0,0.0,91,0.00,CLR,,0.04,WeatherDisplay:10.37,2013-09-26 18:37:00,
2013-09-26 14:40:00,65.6,61.6,30.03,NNE,31,0.0,0.0,87,0.00,CLR,CLR,0.19,WeatherDisplay:10.37,2013-09-26 18:40:00,
2013-09-26 14:42:00,67.8,64.4,30.00,WNW,286,0.0,0.0,89,0.00,CLR,,0.04,WeatherDisplay:10.37,2013-09-26 18:42:00,
2013-09-26 14:45:00,65.4,61.4,30.03,NE,45,0.0,0.0,87,0.00,CLR,CLR,0.19,WeatherDisplay:10.37,2013-09-26 18:45:00,
2013-09-26 14:47:00,68.0,64.0,30.00,NNW,330,1.2,1.2,87,0.00,CLR,,0.04,WeatherDisplay:10.37,2013-09-26 18:47:00,
2013-09-26 14:50:00,65.2,61.6,30.03,NE,45,0.0,0.0,88,0.00,CLR,CLR,0.19,WeatherDisplay:10.37,2013-09-26 18:50:00,
2013-09-26 14:52:00,68.1,64.7,30.00,NNW,330,0.0,0.0,89,0.00,CLR,,0.04,WeatherDisplay:10.37,2013-09-26 18:52:00,
2013-09-26 14:55:00,65.0,61.0,30.03,NE,45,0.0,0.0,87,0.00,CLR,CLR,0.19,WeatherDisplay:10.37,2013-09-26 18:55:00,
2013-09-26 14:57:00,68.3,64.6,30.00,NNW,336,1.2,1.2,88,0.00,CLR,,0.04,WeatherDisplay:10.37,2013-09-26 18:57:00,
2013-09-26 15:00:00,64.8,60.8,30.04,NE,45,0.0,0.0,87,0.00,CLR,CLR,0.19,WeatherDisplay:10.37,2013-09-26 19:00:00,
2013-09-26 15:02:00,68.3,63.9,30.00,NNW,333,4.6,4.6,86,0.00,CLR,,0.04,WeatherDisplay:10.37,2013-09-26 19:02:00,
2013-09-26 15:05:00,64.6,60.6,30.04,NE,45,0.0,1.0,87,0.00,CLR,CLR,0.19,WeatherDisplay:10.37,2013-09-26 19:05:00,
2013-09-26 15:07:00,68.3,64.6,30.00,NNW,332,1.2,0.0,88,0.00,CLR,,0.04,WeatherDisplay:10.37,2013-09-26 19:07:00,
2013-09-26 15:10:00,64.5,60.5,30.04,NE,45,0.0,0.0,87,0.00,CLR,CLR,0.19,WeatherDisplay:10.37,2013-09-26 19:10:00,
2013-09-26 15:14:00,68.4,64.7,30.00,NNW,327,0.0,0.0,88,0.00,CLR,,0.04,WeatherDisplay:10.37,2013-09-26 19:14:00,
2013-09-26 15:15:00,64.3,60.3,30.04,NE,45,0.0,0.0,87,0.00,CLR,CLR,0.19,WeatherDisplay:10.37,2013-09-26 19:15:00,
2013-09-26 15:19:00,68.5,65.4,30.00,NNW,327,0.0,0.0,90,0.00,CLR,,0.04,WeatherDisplay:10.37,2013-09-26 19:19:00,
2013-09-26 15:20:00,64.1,60.5,30.04,NE,45,0.0,0.0,88,0.00,CLR,CLR,0.19,WeatherDisplay:10.37,2013-09-26 19:20:00,
2013-09-26 15:24:00,68.6,64.9,30.00,NNW,327,1.2,0.0,88,0.00,CLR,,0.04,WeatherDisplay:10.37,2013-09-26 19:24:00,
2013-09-26 15:25:00,63.9,60.6,30.04,NE,45,0.0,0.0,89,0.00,CLR,CLR,0.19,WeatherDisplay:10.37,2013-09-26 19:25:00,
2013-09-26 15:29:00,68.7,64.7,30.00,NW,316,7.6,7.6,87,0.00,CLR,,0.04,WeatherDisplay:10.37,2013-09-26 19:29:00,
2013-09-26 15:30:00,63.6,60.6,30.05,NE,45,0.0,0.0,90,0.00,CLR,CLR,0.19,WeatherDisplay:10.37,2013-09-26 19:30:00,
2013-09-26 15:34:00,68.9,64.2,29.99,NW,308,0.0,0.0,85,0.00,CLR,,0.04,WeatherDisplay:10.37,2013-09-26 19:34:00,
2013-09-26 15:35:00,63.4,60.7,30.05,NE,45,0.0,0.0,91,0.00,CLR,CLR,0.19,WeatherDisplay:10.37,2013-09-26 19:35:00,
2013-09-26 15:39:00,69.1,64.4,30.00,SW,221,3.5,3.5,85,0.00,CLR,,0.04,WeatherDisplay:10.37,2013-09-26 19:39:00,
2013-09-26 15:40:00,63.3,60.6,30.05,NE,45,0.0,0.0,91,0.00,CLR,CLR,0.19,WeatherDisplay:10.37,2013-09-26 19:40:00,
2013-09-26 15:44:00,69.1,65.4,30.00,SW,221,0.0,0.0,88,0.00,CLR,,0.04,WeatherDisplay:10.37,2013-09-26 19:44:00,
2013-09-26 15:45:00,63.1,60.7,30.05,NE,45,0.0,0.0,92,0.00,CLR,CLR,0.19,WeatherDisplay:10.37,2013-09-26 19:45:00,
2013-09-26 15:49:00,69.0,64.6,30.00,SW,221,0.0,0.0,86,0.00,CLR,,0.04,WeatherDisplay:10.37,2013-09-26 19:49:00,
2013-09-26 15:50:00,63.0,60.6,30.05,NE,45,0.0,0.0,92,0.00,CLR,CLR,0.19,WeatherDisplay:10.37,2013-09-26 19:50:00,
2013-09-26 15:54:00,68.9,63.2,30.00,NNW,335,1.2,0.0,82,0.00,CLR,,0.04,WeatherDisplay:10.37,2013-09-26 19:54:00,
2013-09-26 15:55:00,62.8,60.7,30.05,NE,45,0.0,0.0,93,0.00,CLR,CLR,0.19,WeatherDisplay:10.37,2013-09-26 19:55:00,
2013-09-26 16:00:00,68.9,64.2,30.00,NW,307,0.0,1.0,85,0.00,CLR,CLR,0.04,WeatherDisplay:10.37,2013-09-26 20:00:00,
2013-09-26 16:05:00,68.7,62.6,30.00,NNW,328,0.0,0.0,81,0.00,CLR,,0.04,WeatherDisplay:10.37,2013-09-26 20:05:00,
2013-09-26 16:10:00,68.8,62.7,30.00,NNW,346,1.2,1.2,81,0.00,CLR,,0.04,WeatherDisplay:10.37,2013-09-26 20:10:00,
2013-09-26 16:15:00,68.9,63.5,30.00,WNW,290,3.5,3.5,83,0.00,CLR,,0.04,WeatherDisplay:10.37,2013-09-26 20:15:00,
2013-09-26 16:20:00,69.0,62.2,30.00,NNE,33,0.0,0.0,79,0.00,CLR,,0.04,WeatherDisplay:10.37,2013-09-26 20:20:00,
2013-09-26 16:25:00,68.9,61.4,30.00,NNE,13,1.2,1.2,77,0.00,CLR,,0.04,WeatherDisplay:10.37,2013-09-26 20:25:00,
2013-09-26 16:30:00,68.8,62.0,30.00,North,360,4.6,4.6,79,0.01,RA,,0.05,WeatherDisplay:10.37,2013-09-26 20:30:00,
2013-09-26 16:35:00,68.7,61.9,30.00,North,360,0.0,0.0,79,0.01,RA,,0.05,WeatherDisplay:10.37,2013-09-26 20:35:00,
2013-09-26 16:40:00,68.6,61.1,30.01,North,360,1.2,0.0,77,0.01,CLR,,0.05,WeatherDisplay:10.37,2013-09-26 20:40:00,
2013-09-26 16:45:00,68.4,62.3,30.01,North,356,2.3,2.3,81,0.01,CLR,,0.05,WeatherDisplay:10.37,2013-09-26 20:45:00,
2013-09-26 16:50:00,68.2,60.7,30.01,North,356,1.2,0.0,77,0.01,CLR,,0.05,WeatherDisplay:10.37,2013-09-26 20:50:00,
2013-09-26 16:55:00,68.3,61.2,30.01,NNW,333,1.2,1.8,78,0.01,CLR,,0.05,WeatherDisplay:10.37,2013-09-26 20:55:00,
2013-09-26 17:00:00,60.8,59.4,30.07,NE,45,0.0,0.0,95,0.00,CLR,CLR,0.19,WeatherDisplay:10.37,2013-09-26 21:00:00,
2013-09-26 17:01:00,68.4,61.3,30.00,NNW,333,0.0,0.0,78,0.01,CLR,,0.05,WeatherDisplay:10.37,2013-09-26 21:01:00,
2013-09-26 17:05:00,60.7,59.0,30.08,NE,45,0.0,0.0,94,0.00,CLR,CLR,0.19,WeatherDisplay:10.37,2013-09-26 21:05:00,
2013-09-26 17:06:00,68.5,61.4,30.00,NNW,330,8.1,8.1,78,0.01,CLR,,0.05,WeatherDisplay:10.37,2013-09-26 21:06:00,
2013-09-26 17:10:00,60.5,59.1,30.08,NE,45,0.0,0.0,95,0.00,CLR,CLR,0.19,WeatherDisplay:10.37,2013-09-26 21:10:00,
2013-09-26 17:11:00,68.6,62.2,30.00,NW,312,0.0,0.1,80,0.01,CLR,,0.05,WeatherDisplay:10.37,2013-09-26 21:11:00,
2013-09-26 17:15:00,60.4,59.0,30.08,NE,45,0.0,0.0,95,0.00,CLR,CLR,0.19,WeatherDisplay:10.37,2013-09-26 21:15:00,
2013-09-26 17:16:00,68.6,61.8,30.01,NE,37,8.1,8.1,79,0.01,CLR,,0.05,WeatherDisplay:10.37,2013-09-26 21:16:00,
2013-09-26 17:20:00,60.3,58.9,30.08,NE,45,0.0,0.0,95,0.00,CLR,CLR,0.19,WeatherDisplay:10.37,2013-09-26 21:20:00,
2013-09-26 17:21:00,68.5,61.0,30.01,NNW,346,0.0,0.0,77,0.01,CLR,,0.05,WeatherDisplay:10.37,2013-09-26 21:21:00,
2013-09-26 17:25:00,60.2,58.8,30.08,NE,45,0.0,0.0,95,0.00,CLR,CLR,0.19,WeatherDisplay:10.37,2013-09-26 21:25:00,
2013-09-26 17:26:00,68.4,61.3,30.01,NNW,346,0.0,0.0,78,0.01,CLR,,0.05,WeatherDisplay:10.37,2013-09-26 21:26:00,
2013-09-26 17:30:00,60.1,59.0,30.08,NE,45,0.0,0.0,96,0.00,CLR,CLR,0.19,WeatherDisplay:10.37,2013-09-26 21:30:00,
2013-09-26 17:31:00,68.2,60.7,30.01,NNW,346,1.2,0.0,77,0.00,CLR,,0.05,WeatherDisplay:10.37,2013-09-26 21:31:00,
2013-09-26 17:35:00,60.0,58.9,30.08,NE,45,0.0,0.0,96,0.00,CLR,CLR,0.19,WeatherDisplay:10.37,2013-09-26 21:35:00,
2013-09-26 17:36:00,68.1,60.6,30.01,NNW,342,0.0,0.0,77,0.00,CLR,,0.05,WeatherDisplay:10.37,2013-09-26 21:36:00,
2013-09-26 17:40:00,59.9,58.8,30.08,NE,45,0.0,0.0,96,0.00,CLR,CLR,0.19,WeatherDisplay:10.37,2013-09-26 21:40:00,
2013-09-26 17:41:00,68.0,60.9,30.01,NNW,342,0.0,0.0,78,0.00,CLR,,0.05,WeatherDisplay:10.37,2013-09-26 21:41:00,
2013-09-26 17:45:00,59.8,58.7,30.08,NE,45,0.0,0.0,96,0.00,CLR,CLR,0.19,WeatherDisplay:10.37,2013-09-26 21:45:00,
2013-09-26 17:46:00,68.0,61.6,30.01,NNW,342,0.0,0.0,80,0.00,CLR,,0.05,WeatherDisplay:10.37,2013-09-26 21:46:00,
2013-09-26 17:50:00,59.6,58.5,30.08,NE,45,0.0,0.0,96,0.00,CLR,CLR,0.19,WeatherDisplay:10.37,2013-09-26 21:50:00,
2013-09-26 17:51:00,68.1,62.4,30.01,West,276,2.3,0.0,82,0.00,CLR,,0.05,WeatherDisplay:10.37,2013-09-26 21:51:00,
2013-09-26 17:55:00,59.5,58.4,30.08,NE,45,0.0,0.0,96,0.00,CLR,CLR,0.19,WeatherDisplay:10.37,2013-09-26 21:55:00,
2013-09-26 17:56:00,68.2,62.8,30.01,West,276,1.2,1.2,83,0.00,CLR,,0.05,WeatherDisplay:10.37,2013-09-26 21:56:00,
2013-09-26 18:00:00,59.3,58.2,30.08,NE,45,0.0,1.0,96,0.00,CLR,CLR,0.19,WeatherDisplay:10.37,2013-09-26 22:00:00,
2013-09-26 18:01:00,68.2,62.8,30.01,NW,311,0.0,0.0,83,0.00,CLR,,0.05,WeatherDisplay:10.37,2013-09-26 22:01:00,
2013-09-26 18:05:00,59.3,58.2,30.08,NE,45,0.0,0.0,96,0.00,CLR,CLR,0.19,WeatherDisplay:10.37,2013-09-26 22:05:00,
2013-09-26 18:06:00,68.2,62.8,30.01,WNW,297,3.5,0.0,83,0.00,CLR,,0.05,WeatherDisplay:10.37,2013-09-26 22:06:00,
2013-09-26 18:10:00,59.2,58.1,30.09,NE,45,0.0,0.0,96,0.00,CLR,CLR,0.19,WeatherDisplay:10.37,2013-09-26 22:10:00,
2013-09-26 18:11:00,68.2,63.2,30.01,WNW,297,1.2,0.0,84,0.00,CLR,,0.05,WeatherDisplay:10.37,2013-09-26 22:11:00,
2013-09-26 18:15:00,59.1,58.0,30.09,NE,45,0.0,0.0,96,0.00,CLR,CLR,0.19,WeatherDisplay:10.37,2013-09-26 22:15:00,
2013-09-26 18:16:00,68.2,63.5,30.02,WNW,296,0.0,0.0,85,0.00,CLR,,0.05,WeatherDisplay:10.37,2013-09-26 22:16:00,
2013-09-26 18:20:00,59.0,57.9,30.09,NE,45,0.0,0.0,96,0.00,CLR,CLR,0.19,WeatherDisplay:10.37,2013-09-26 22:20:00,
2013-09-26 18:21:00,68.2,63.9,30.01,WNW,296,0.0,0.0,86,0.00,CLR,,0.05,WeatherDisplay:10.37,2013-09-26 22:21:00,
2013-09-26 18:25:00,58.9,57.8,30.09,NE,45,0.0,0.0,96,0.00,CLR,CLR,0.19,WeatherDisplay:10.37,2013-09-26 22:25:00,
2013-09-26 18:26:00,68.2,63.5,30.02,WNW,294,1.2,0.0,85,0.00,CLR,,0.05,WeatherDisplay:10.37,2013-09-26 22:26:00,
2013-09-26 18:30:00,58.8,57.7,30.09,NE,45,0.0,0.0,96,0.00,CLR,CLR,0.19,WeatherDisplay:10.37,2013-09-26 22:30:00,
2013-09-26 18:31:00,68.1,63.8,30.02,WNW,294,1.2,0.0,86,0.00,CLR,,0.05,WeatherDisplay:10.37,2013-09-26 22:31:00,
2013-09-26 18:35:00,58.8,57.7,30.09,NE,45,0.0,0.0,96,0.00,CLR,CLR,0.19,WeatherDisplay:10.37,2013-09-26 22:35:00,
2013-09-26 18:36:00,68.0,63.7,30.02,WNW,293,0.0,0.0,86,0.00,CLR,,0.05,WeatherDisplay:10.37,2013-09-26 22:36:00,
2013-09-26 18:40:00,58.6,57.5,30.09,NE,45,0.0,0.0,96,0.00,CLR,CLR,0.19,WeatherDisplay:10.37,2013-09-26 22:40:00,
2013-09-26 18:41:00,67.9,63.2,30.02,WNW,294,0.0,0.1,85,0.00,CLR,,0.05,WeatherDisplay:10.37,2013-09-26 22:41:00,
2013-09-26 18:45:00,58.4,57.3,30.09,NE,45,0.0,0.0,96,0.00,CLR,CLR,0.19,WeatherDisplay:10.37,2013-09-26 22:45:00,
2013-09-26 18:46:00,67.8,62.8,30.02,NW,306,0.0,1.2,84,0.00,CLR,,0.05,WeatherDisplay:10.37,2013-09-26 22:46:00,
2013-09-26 18:50:00,58.3,57.2,30.10,NE,45,0.0,1.0,96,0.00,CLR,CLR,0.19,WeatherDisplay:10.37,2013-09-26 22:50:00,
2013-09-26 18:51:00,67.6,63.3,30.02,NW,306,0.0,0.0,86,0.00,CLR,,0.05,WeatherDisplay:10.37,2013-09-26 22:51:00,
2013-09-26 18:55:00,58.2,57.1,30.10,NE,45,0.0,0.0,96,0.00,CLR,CLR,0.19,WeatherDisplay:10.37,2013-09-26 22:55:00,
2013-09-26 18:56:00,67.4,63.1,30.03,NW,310,0.0,0.1,86,0.00,CLR,,0.05,WeatherDisplay:10.37,2013-09-26 22:56:00,
2013-09-26 19:00:00,58.1,57.3,30.10,NE,45,0.0,0.0,97,0.00,CLR,CLR,0.19,WeatherDisplay:10.37,2013-09-26 23:00:00,
2013-09-26 19:01:00,67.2,62.9,30.03,NW,310,0.0,0.0,86,0.00,CLR,,0.05,WeatherDisplay:10.37,2013-09-26 23:01:00,
2013-09-26 19:05:00,58.0,57.2,30.10,NE,45,0.0,0.0,97,0.00,RA,RA,0.00,WeatherDisplay:10.37,2013-09-26 23:05:00,
2013-09-26 19:06:00,67.0,62.7,30.03,NW,310,0.0,0.0,86,0.00,CLR,,0.05,WeatherDisplay:10.37,2013-09-26 23:06:00,
2013-09-26 19:10:00,57.9,57.1,30.10,NE,45,0.0,0.0,97,0.00,RA,RA,0.00,WeatherDisplay:10.37,2013-09-26 23:10:00,
2013-09-26 19:11:00,66.7,62.7,30.03,NW,310,0.0,0.0,87,0.00,CLR,,0.05,WeatherDisplay:10.37,2013-09-26 23:11:00,
2013-09-26 19:15:00,57.8,57.0,30.10,NE,45,0.0,0.0,97,0.00,CLR,CLR,0.00,WeatherDisplay:10.37,2013-09-26 23:15:00,
2013-09-26 19:16:00,66.5,62.5,30.03,NW,310,0.0,0.0,87,0.00,CLR,,0.05,WeatherDisplay:10.37,2013-09-26 23:16:00,
2013-09-26 19:20:00,57.7,56.9,30.10,NE,45,0.0,0.0,97,0.00,CLR,CLR,0.00,WeatherDisplay:10.37,2013-09-26 23:20:00,
2013-09-26 19:21:00,66.2,62.2,30.03,NW,310,3.5,3.5,87,0.00,CLR,,0.05,WeatherDisplay:10.37,2013-09-26 23:21:00,
2013-09-26 19:25:00,57.6,56.8,30.09,NE,45,0.0,0.0,97,0.00,CLR,CLR,0.00,WeatherDisplay:10.37,2013-09-26 23:25:00,
2013-09-26 19:26:00,66.0,62.0,30.03,NNE,13,0.0,0.0,87,0.00,CLR,,0.05,WeatherDisplay:10.37,2013-09-26 23:26:00,
2013-09-26 19:30:00,57.6,56.8,30.09,NE,45,0.0,0.0,97,0.00,CLR,CLR,0.00,WeatherDisplay:10.37,2013-09-26 23:30:00,
2013-09-26 19:31:00,65.8,61.8,30.03,NNE,33,0.0,0.0,87,0.00,CLR,,0.05,WeatherDisplay:10.37,2013-09-26 23:31:00,
2013-09-26 19:35:00,57.5,56.7,30.10,NE,45,0.0,0.0,97,0.00,CLR,CLR,0.00,WeatherDisplay:10.37,2013-09-26 23:35:00,
2013-09-26 19:36:00,65.7,61.7,30.03,NE,52,0.0,0.0,87,0.00,CLR,,0.05,WeatherDisplay:10.37,2013-09-26 23:36:00,
2013-09-26 19:40:00,57.4,56.6,30.10,NE,45,0.0,0.0,97,0.00,CLR,CLR,0.00,WeatherDisplay:10.37,2013-09-26 23:40:00,
2013-09-26 19:41:00,65.5,61.5,30.03,NE,52,0.0,0.0,87,0.00,CLR,,0.05,WeatherDisplay:10.37,2013-09-26 23:41:00,
2013-09-26 19:45:00,57.3,56.5,30.09,NE,45,0.0,0.0,97,0.00,CLR,CLR,0.00,WeatherDisplay:10.37,2013-09-26 23:45:00,
2013-09-26 19:46:00,65.3,61.3,30.04,NE,52,0.0,0.0,87,0.00,CLR,,0.05,WeatherDisplay:10.37,2013-09-26 23:46:00,
2013-09-26 19:50:00,57.2,56.4,30.09,NE,45,0.0,0.0,97,0.00,CLR,CLR,0.00,WeatherDisplay:10.37,2013-09-26 23:50:00,
2013-09-26 19:52:00,65.1,61.1,30.03,NE,52,0.0,0.0,87,0.00,CLR,,0.05,WeatherDisplay:10.37,2013-09-26 23:52:00,
2013-09-26 19:55:00,57.2,56.4,30.10,NE,45,0.0,0.0,97,0.00,CLR,CLR,0.00,WeatherDisplay:10.37,2013-09-26 23:55:00,
2013-09-26 19:57:00,64.9,60.9,30.04,NE,52,0.0,0.0,87,0.00,CLR,,0.05,WeatherDisplay:10.37,2013-09-26 23:57:00,
2013-09-26 20:00:00,57.1,57.1,30.10,NE,45,0.0,0.0,100,0.00,CLR,CLR,0.00,WeatherDisplay:10.37,2013-09-27 00:00:00,
2013-09-26 20:02:00,64.7,61.1,30.04,NE,52,0.0,0.0,88,0.00,CLR,,0.05,WeatherDisplay:10.37,2013-09-27 00:02:00,
2013-09-26 20:05:00,57.0,56.2,30.10,NE,45,0.0,0.0,97,0.00,CLR,CLR,0.00,WeatherDisplay:10.37,2013-09-27 00:05:00,
2013-09-26 20:07:00,64.5,60.5,30.04,NE,52,0.0,0.0,87,0.00,CLR,,0.05,WeatherDisplay:10.37,2013-09-27 00:07:00,
2013-09-26 20:10:00,56.9,56.1,30.10,NE,45,0.0,0.0,97,0.00,CLR,CLR,0.00,WeatherDisplay:10.37,2013-09-27 00:10:00,
2013-09-26 20:12:00,64.4,60.4,30.04,NE,52,0.0,0.0,87,0.00,CLR,,0.05,WeatherDisplay:10.37,2013-09-27 00:12:00,
2013-09-26 20:15:00,56.8,56.0,30.10,NE,45,0.0,0.0,97,0.00,CLR,CLR,0.00,WeatherDisplay:10.37,2013-09-27 00:15:00,
2013-09-26 20:17:00,64.2,60.6,30.04,NE,52,0.0,0.0,88,0.00,CLR,,0.05,WeatherDisplay:10.37,2013-09-27 00:17:00,
2013-09-26 20:20:00,56.7,55.9,30.10,NE,45,0.0,0.0,97,0.00,CLR,CLR,0.00,WeatherDisplay:10.37,2013-09-27 00:20:00,
2013-09-26 20:22:00,64.0,60.4,30.04,NE,52,0.0,0.0,88,0.00,CLR,,0.05,WeatherDisplay:10.37,2013-09-27 00:22:00,
2013-09-26 20:25:00,56.6,55.8,30.10,NE,45,0.0,0.0,97,0.00,CLR,CLR,0.00,WeatherDisplay:10.37,2013-09-27 00:25:00,
2013-09-26 20:27:00,63.7,60.4,30.05,NE,52,0.0,0.0,89,0.00,CLR,,0.05,WeatherDisplay:10.37,2013-09-27 00:27:00,
2013-09-26 20:30:00,56.5,55.7,30.10,NE,45,0.0,0.0,97,0.00,CLR,CLR,0.00,WeatherDisplay:10.37,2013-09-27 00:30:00,
2013-09-26 20:32:00,63.5,60.5,30.05,NE,52,0.0,0.0,90,0.00,CLR,,0.05,WeatherDisplay:10.37,2013-09-27 00:32:00,
2013-09-26 20:35:00,56.5,55.7,30.11,NE,45,0.0,0.0,97,0.00,CLR,CLR,0.00,WeatherDisplay:10.37,2013-09-27 00:35:00,
2013-09-26 20:37:00,63.3,60.6,30.05,NE,52,0.0,0.0,91,0.00,CLR,,0.05,WeatherDisplay:10.37,2013-09-27 00:37:00,
2013-09-26 20:40:00,56.4,55.8,30.11,NE,45,0.0,0.0,98,0.00,CLR,CLR,0.00,WeatherDisplay:10.37,2013-09-27 00:40:00,
2013-09-26 20:42:00,63.2,60.8,30.05,NE,52,0.0,0.0,92,0.00,CLR,,0.05,WeatherDisplay:10.37,2013-09-27 00:42:00,
2013-09-26 20:45:00,56.4,55.8,30.11,NE,45,0.0,0.0,98,0.00,CLR,CLR,0.00,WeatherDisplay:10.37,2013-09-27 00:45:00,
2013-09-26 20:47:00,63.0,60.6,30.05,NE,52,0.0,0.0,92,0.00,CLR,,0.05,WeatherDisplay:10.37,2013-09-27 00:47:00,
2013-09-26 20:50:00,56.3,55.7,30.11,NE,45,0.0,0.0,98,0.00,CLR,CLR,0.00,WeatherDisplay:10.37,2013-09-27 00:50:00,
2013-09-26 20:52:00,62.9,60.5,30.05,NE,52,0.0,0.0,92,0.00,CLR,,0.05,WeatherDisplay:10.37,2013-09-27 00:52:00,
2013-09-26 20:55:00,56.3,55.7,30.11,NE,45,0.0,0.0,98,0.00,CLR,CLR,0.00,WeatherDisplay:10.37,2013-09-27 00:55:00,
2013-09-26 20:57:00,62.7,60.3,30.06,NE,52,0.0,0.0,92,0.00,CLR,,0.05,WeatherDisplay:10.37,2013-09-27 00:57:00,
2013-09-26 21:00:00,56.3,55.7,30.11,NE,45,0.0,0.0,98,0.00,CLR,CLR,0.00,WeatherDisplay:10.37,2013-09-27 01:00:00,
2013-09-26 21:02:00,62.6,60.5,30.06,NE,52,0.0,0.0,93,0.00,CLR,,0.05,WeatherDisplay:10.37,2013-09-27 01:02:00,
2013-09-26 21:05:00,56.1,55.5,30.11,NE,45,0.0,0.0,98,0.00,CLR,CLR,0.00,WeatherDisplay:10.37,2013-09-27 01:05:00,
2013-09-26 21:07:00,62.4,60.3,30.06,NE,52,0.0,0.0,93,0.00,CLR,,0.05,WeatherDisplay:10.37,2013-09-27 01:07:00,
2013-09-26 21:10:00,56.0,55.4,30.11,NE,45,0.0,0.0,98,0.00,CLR,CLR,0.00,WeatherDisplay:10.37,2013-09-27 01:10:00,
2013-09-26 21:12:00,62.1,60.1,30.06,NE,52,0.0,0.0,93,0.00,CLR,,0.05,WeatherDisplay:10.37,2013-09-27 01:12:00,
2013-09-26 21:15:00,55.9,55.3,30.11,NE,45,0.0,0.0,98,0.00,CLR,CLR,0.00,WeatherDisplay:10.37,2013-09-27 01:15:00,
2013-09-26 21:17:00,61.9,59.9,30.06,NE,52,0.0,0.0,93,0.00,CLR,,0.05,WeatherDisplay:10.37,2013-09-27 01:17:00,
2013-09-26 21:20:00,55.8,55.2,30.11,NE,45,0.0,0.0,98,0.00,CLR,CLR,0.00,WeatherDisplay:10.37,2013-09-27 01:20:00,
2013-09-26 21:22:00,61.6,59.6,30.06,NE,52,0.0,0.0,93,0.00,CLR,,0.05,WeatherDisplay:10.37,2013-09-27 01:22:00,
2013-09-26 21:25:00,55.8,55.2,30.11,NE,45,0.0,0.0,98,0.00,CLR,CLR,0.00,WeatherDisplay:10.37,2013-09-27 01:25:00,
2013-09-26 21:27:00,61.6,59.9,30.07,NE,52,0.0,0.0,94,0.00,CLR,,0.05,WeatherDisplay:10.37,2013-09-27 01:27:00,
2013-09-26 21:30:00,55.7,55.1,30.11,NE,45,0.0,0.0,98,0.00,CLR,CLR,0.00,WeatherDisplay:10.37,2013-09-27 01:30:00,
2013-09-26 21:32:00,61.6,60.2,30.07,NE,52,0.0,0.0,95,0.00,CLR,,0.05,WeatherDisplay:10.37,2013-09-27 01:32:00,
2013-09-26 21:35:00,55.6,55.0,30.11,NE,45,0.0,0.0,98,0.00,CLR,CLR,0.00,WeatherDisplay:10.37,2013-09-27 01:35:00,
2013-09-26 21:37:00,61.6,60.2,30.07,NE,52,0.0,0.0,95,0.00,CLR,,0.05,WeatherDisplay:10.37,2013-09-27 01:37:00,
2013-09-26 21:40:00,55.5,54.9,30.11,NE,45,0.0,0.0,98,0.00,CLR,CLR,0.00,WeatherDisplay:10.37,2013-09-27 01:40:00,
2013-09-26 21:42:00,61.4,59.7,30.07,NE,52,0.0,0.0,94,0.00,CLR,,0.05,WeatherDisplay:10.37,2013-09-27 01:42:00,
2013-09-26 21:45:00,55.5,54.9,30.11,NE,45,0.0,0.0,98,0.00,CLR,CLR,0.00,WeatherDisplay:10.37,2013-09-27 01:45:00,
2013-09-26 21:47:00,61.2,59.8,30.07,NE,52,0.0,0.0,95,0.00,CLR,,0.05,WeatherDisplay:10.37,2013-09-27 01:47:00,
2013-09-26 21:50:00,55.5,54.9,30.11,NE,45,0.0,0.0,98,0.00,CLR,CLR,0.00,WeatherDisplay:10.37,2013-09-27 01:50:00,
2013-09-26 21:52:00,61.0,59.6,30.07,NE,52,0.0,0.0,95,0.00,CLR,,0.05,WeatherDisplay:10.37,2013-09-27 01:52:00,
2013-09-26 21:55:00,55.5,54.9,30.11,NE,45,0.0,0.0,98,0.00,CLR,CLR,0.00,WeatherDisplay:10.37,2013-09-27 01:55:00,
2013-09-26 21:57:00,60.9,59.5,30.07,NE,52,0.0,0.0,95,0.00,CLR,,0.05,WeatherDisplay:10.37,2013-09-27 01:57:00,
2013-09-26 22:00:00,55.6,55.3,30.11,NE,45,0.0,0.0,99,0.00,CLR,CLR,0.00,WeatherDisplay:10.37,2013-09-27 02:00:00,
2013-09-26 22:02:00,60.7,59.3,30.08,NE,52,0.0,0.0,95,0.00,CLR,,0.05,WeatherDisplay:10.37,2013-09-27 02:02:00,
2013-09-26 22:05:00,55.6,55.3,30.11,NE,45,0.0,0.0,99,0.00,CLR,CLR,0.00,WeatherDisplay:10.37,2013-09-27 02:05:00,
2013-09-26 22:07:00,60.5,58.8,30.08,NE,52,0.0,0.0,94,0.00,CLR,,0.05,WeatherDisplay:10.37,2013-09-27 02:07:00,
2013-09-26 22:10:00,55.6,55.0,30.11,NE,45,0.0,0.0,98,0.00,CLR,CLR,0.00,WeatherDisplay:10.37,2013-09-27 02:10:00,
2013-09-26 22:12:00,60.4,59.0,30.08,NE,52,0.0,0.0,95,0.00,CLR,,0.05,WeatherDisplay:10.37,2013-09-27 02:12:00,
2013-09-26 22:15:00,55.6,55.0,30.11,NE,45,0.0,0.0,98,0.00,CLR,CLR,0.00,WeatherDisplay:10.37,2013-09-27 02:15:00,
2013-09-26 22:17:00,60.3,58.9,30.08,NE,52,0.0,0.0,95,0.00,CLR,,0.05,WeatherDisplay:10.37,2013-09-27 02:17:00,
2013-09-26 22:20:00,55.6,55.0,30.11,NE,45,0.0,0.0,98,0.00,CLR,CLR,0.00,WeatherDisplay:10.37,2013-09-27 02:20:00,
2013-09-26 22:22:00,60.2,58.8,30.08,NE,52,0.0,0.0,95,0.00,CLR,,0.05,WeatherDisplay:10.37,2013-09-27 02:22:00,
2013-09-26 22:25:00,55.6,55.0,30.11,NE,45,0.0,0.0,98,0.00,CLR,CLR,0.00,WeatherDisplay:10.37,2013-09-27 02:25:00,
2013-09-26 22:27:00,60.2,58.8,30.08,NE,52,0.0,0.0,95,0.00,CLR,,0.05,WeatherDisplay:10.37,2013-09-27 02:27:00,
2013-09-26 22:30:00,55.6,55.0,30.11,NE,45,0.0,0.0,98,0.00,CLR,CLR,0.00,WeatherDisplay:10.37,2013-09-27 02:30:00,
2013-09-26 22:32:00,60.1,59.0,30.08,NE,52,0.0,0.0,96,0.00,,,0.05,WeatherDisplay:10.37,2013-09-27 02:32:00,
2013-09-26 22:35:00,55.5,55.2,30.11,NE,45,0.0,0.0,99,0.00,CLR,CLR,0.00,WeatherDisplay:10.37,2013-09-27 02:35:00,
2013-09-26 22:37:00,59.9,58.8,30.08,NE,52,0.0,0.0,96,0.00,,,0.05,WeatherDisplay:10.37,2013-09-27 02:37:00,
2013-09-26 22:40:00,55.5,54.9,30.11,NE,45,0.0,0.0,98,0.00,CLR,CLR,0.00,WeatherDisplay:10.37,2013-09-27 02:40:00,
2013-09-26 22:42:00,59.8,58.7,30.08,NE,52,0.0,0.0,96,0.00,,,0.05,WeatherDisplay:10.37,2013-09-27 02:42:00,
2013-09-26 22:45:00,55.4,54.8,30.11,NE,45,0.0,1.0,98,0.00,CLR,CLR,0.00,WeatherDisplay:10.37,2013-09-27 02:45:00,
2013-09-26 22:47:00,59.7,58.6,30.08,NE,52,0.0,0.0,96,0.00,,,0.05,WeatherDisplay:10.37,2013-09-27 02:47:00,
2013-09-26 22:50:00,55.3,54.7,30.11,NE,45,0.0,1.0,98,0.00,CLR,CLR,0.00,WeatherDisplay:10.37,2013-09-27 02:50:00,
2013-09-26 22:52:00,59.5,58.1,30.08,NE,52,0.0,0.0,95,0.00,,,0.05,WeatherDisplay:10.37,2013-09-27 02:52:00,
2013-09-26 22:55:00,55.2,54.9,30.10,NE,45,0.0,0.0,99,0.00,CLR,CLR,0.00,WeatherDisplay:10.37,2013-09-27 02:55:00,
2013-09-26 22:57:00,59.4,58.3,30.08,NE,52,1.1,0.0,96,0.00,,,0.05,WeatherDisplay:10.37,2013-09-27 02:57:00,
2013-09-26 23:00:00,55.2,54.9,30.10,NE,45,0.0,0.0,99,0.00,CLR,CLR,0.00,WeatherDisplay:10.37,2013-09-27 03:00:00,
2013-09-26 23:02:00,59.3,58.2,30.08,NE,52,0.0,0.0,96,0.00,,,0.05,WeatherDisplay:10.37,2013-09-27 03:02:00,
2013-09-26 23:05:00,55.2,54.9,30.11,NE,45,0.0,0.0,99,0.00,CLR,CLR,0.00,WeatherDisplay:10.37,2013-09-27 03:05:00,
2013-09-26 23:07:00,59.2,58.1,30.09,NE,52,0.0,0.0,96,0.00,,,0.05,WeatherDisplay:10.37,2013-09-27 03:07:00,
2013-09-26 23:10:00,55.2,54.9,30.11,NE,45,0.0,0.0,99,0.00,CLR,CLR,0.00,WeatherDisplay:10.37,2013-09-27 03:10:00,
2013-09-26 23:12:00,59.2,58.1,30.09,NE,52,0.0,0.0,96,0.00,,,0.05,WeatherDisplay:10.37,2013-09-27 03:12:00,
2013-09-26 23:15:00,55.3,55.0,30.10,NE,45,0.0,0.0,99,0.00,CLR,CLR,0.00,WeatherDisplay:10.37,2013-09-27 03:15:00,
2013-09-26 23:17:00,59.0,57.9,30.09,NE,52,0.0,0.0,96,0.00,,,0.05,WeatherDisplay:10.37,2013-09-27 03:17:00,
2013-09-26 23:20:00,55.3,55.0,30.10,NE,45,0.0,0.0,99,0.00,CLR,CLR,0.00,WeatherDisplay:10.37,2013-09-27 03:20:00,
2013-09-26 23:22:00,58.9,57.8,30.09,NE,52,0.0,0.0,96,0.00,,,0.05,WeatherDisplay:10.37,2013-09-27 03:22:00,
2013-09-26 23:25:00,55.2,54.9,30.10,NE,45,0.0,0.0,99,0.00,CLR,CLR,0.00,WeatherDisplay:10.37,2013-09-27 03:25:00,
2013-09-26 23:27:00,58.8,57.7,30.09,NE,52,0.0,0.0,96,0.00,,,0.05,WeatherDisplay:10.37,2013-09-27 03:27:00,
2013-09-26 23:30:00,55.1,54.8,30.10,NE,45,0.0,0.0,99,0.00,CLR,CLR,0.00,WeatherDisplay:10.37,2013-09-27 03:30:00,
2013-09-26 23:32:00,58.8,57.7,30.09,NE,52,0.0,0.0,96,0.00,,,0.05,WeatherDisplay:10.37,2013-09-27 03:32:00,
2013-09-26 23:35:00,54.9,54.3,30.11,NE,45,0.0,0.0,98,0.00,CLR,CLR,0.00,WeatherDisplay:10.37,2013-09-27 03:35:00,
2013-09-26 23:37:00,58.7,57.6,30.09,NE,52,0.0,0.0,96,0.00,,,0.05,WeatherDisplay:10.37,2013-09-27 03:37:00,
2013-09-26 23:40:00,54.9,54.6,30.11,NE,45,0.0,0.0,99,0.00,CLR,CLR,0.00,WeatherDisplay:10.37,2013-09-27 03:40:00,
2013-09-26 23:42:00,58.5,57.4,30.09,NE,52,0.0,0.0,96,0.00,,,0.05,WeatherDisplay:10.37,2013-09-27 03:42:00,
2013-09-26 23:45:00,55.0,54.7,30.12,NE,45,0.0,0.0,99,0.00,CLR,CLR,0.00,WeatherDisplay:10.37,2013-09-27 03:45:00,
2013-09-26 23:47:00,58.3,57.2,30.09,NE,52,1.2,0.0,96,0.00,,,0.05,WeatherDisplay:10.37,2013-09-27 03:47:00,
2013-09-26 23:50:00,55.0,54.7,30.12,NE,45,0.0,0.0,99,0.00,CLR,CLR,0.00,WeatherDisplay:10.37,2013-09-27 03:50:00,
2013-09-26 23:52:00,58.2,57.1,30.10,NE,52,0.0,0.0,96,0.00,,,0.05,WeatherDisplay:10.37,2013-09-27 03:52:00,
2013-09-26 23:55:00,55.0,54.7,30.12,NE,45,0.0,0.0,99,0.00,CLR,CLR,0.00,WeatherDisplay:10.37,2013-09-27 03:55:00,
2013-09-26 23:57:00,58.1,57.3,30.10,NE,52,0.0,0.0,97,0.00,,,0.05,WeatherDisplay:10.37,2013-09-27 03:57:00,